Regional Weather Roundup
Issued by NWS

Home | Current Version | Previous Version | Graphics & Text | Print | Product List | Glossary On
Versions: 1 2 3 4 5 6 7 8 9 10 11 12 13 14 15 16 17 18 19 20 21 22 23 24 25 26 27 28 29 30 31 32 33 34 35 36 37 38 39 40 41 42 43 44 45 46 47 48 49 50
000
ASUS43 KDTX 261901
RWRMI
MICHIGAN HOURLY REGIONAL WEATHER ROUNDUP
NATIONAL WEATHER SERVICE DETROIT/PONTIAC MI
300 PM EDT TUE SEP 26 2017

NOTE: "FAIR" INDICATES FEW OR NO CLOUDS BELOW 12,000 FEET WITH NO
SIGNIFICANT WEATHER AND/OR OBSTRUCTION TO VISIBILITY.

MIZ047>049-052>055-059>063-066>070-074>076-081>083-262000-
SOUTHEAST LOWER MICHIGAN

CITY           SKY/WX    TMP DP  RH WIND       PRES   REMARKS
ADRIAN         MOSUNNY   88  58  36 W12       29.98F
ALMA           SUNNY     90  47  22 SW10      29.94S
ANN ARBOR      SUNNY     92  59  33 SW10      29.95F HX  91
BAD AXE        MOSUNNY   88  58  36 SW6       29.94F
CARO           MOSUNNY   91  58  32 SW12      29.93F HX  90
DETROIT CITY   SUNNY     89  58  34 SW7       29.95F
DETROIT        MOSUNNY   90  61  37 S12       29.95F HX  90
FLINT          MOSUNNY   90  58  33 SW10G17   29.95F
GROSSE ILE     SUNNY     82  69  64 S8        29.95F
HILLSDALE      CLOUDY    88  59  37 SW7       29.99S
HOWELL         MOSUNNY   90  53  29 SW12      29.96F

CITY           SKY/WX    TMP DP  RH WIND       PRES   REMARKS
JACKSON        MOSUNNY   88  58  36 SW9       29.97F
LAMBERTVILLE   MOSUNNY   90  62  39 W3        29.96F HX  91
LANSING        SUNNY     90  53  28 SW12G20   29.95F
LAPEER         FAIR      90  58  34 SW6       29.95F
MASON          SUNNY     89  55  31 SW7       29.96S
MONROE         SUNNY     90  59  34 SW5       29.94F
MT. CLEMENS    MOSUNNY   88  64  45 S12       29.94F
PONTIAC        MOSUNNY   89  57  33 SW8       29.95F
PORT HOPE        N/A     74  69  85 E10       29.93F
PORT HURON     SUNNY     91  61  35 S10       29.95F HX  91
TRI CITIES     SUNNY     91  53  27 SW10      29.94F
MIDLAND        FAIR      91  55  28 SW10      29.92F
TROY           SUNNY     91  57  31 S6        29.96F
SAGINAW HB     SUNNY     90  54  29 SW10      29.93S
$$
MIZ043>046-050>051-056>058-064>065-071>073-077>080-262000-
SOUTHWEST LOWER MICHIGAN

CITY           SKY/WX    TMP DP  RH WIND       PRES   REMARKS
BATTLE CREEK   PTSUNNY   88  60  38 W12       29.97F
BENTON HARBOR  SUNNY     90  61  37 SW10G20   29.94F HX  90
BIG RAPIDS     PTSUNNY   87  53  31 SW8G21    29.93F
COLDWATER      MOSUNNY   89  55  31 SW12      29.97F
FREMONT        FAIR      89  60  36 SW14G22   29.93F
HOLLAND        SUNNY     89  61  38 W13G20    29.95F
GRAND RAPIDS   PTSUNNY   90  61  37 W14       29.94F HX  90
IONIA          FAIR      92  54  26 SW13G20   29.93F HX  90
KALAMAZOO      MOSUNNY   87  59  38 SW8       29.96F
LUDINGTON      PTSUNNY   84  62  48 S8G17     29.91S
MARSHALL       MOSUNNY   88  60  37 SW8       29.96F
MOUNT PLEASANT MOSUNNY   91  52  26 SW8       29.93F
MUSKEGON       MOSUNNY   88  62  41 SW9       29.93F
SOUTH HAVEN    SUNNY     89  58  35 W9        29.95F
$$
MIZ016>042-262000-
NORTHERN LOWER MICHIGAN

CITY           SKY/WX    TMP DP  RH WIND       PRES   REMARKS
ALPENA         SUNNY     85  68  56 E12       29.91F
BEAVER ISLAND  LGT RAIN  71  65  81 SW8       29.91S
BELLAIRE       PTSUNNY   89  56  32 SW10      29.89F
CADILLAC       MOSUNNY   91  52  26 SW12      29.93F
CHARLEVOIX     PTSUNNY   80  61  51 W12       29.93S
FRANKFORT      CLOUDY    78  66  67 W13G18    29.91S
GAYLORD        MOSUNNY   85  56  37 SW14      29.93F
GRAYLING       PTSUNNY   85  55  34 SW7       29.94F
HARBOR SPRINGS PTSUNNY   85  59  41 W6        29.89S
HOUGHTON LAKE  MOSUNNY   86  56  35 S9        29.95F
MANISTEE       PTSUNNY   87  63  44 SW15      29.90S
OSCODA         SUNNY     89  56  32 SW14G20   29.91F
PELLSTON       PTSUNNY   87  59  38 SW7       29.89F
ROGERS CITY    MOSUNNY   88  53  30 SW12G17   29.90F
TRAVERSE CITY  PTSUNNY   90  58  33 SW8G16    29.87F
$$
MIZ007>008-015-262000-
EASTERN UPPER MICHIGAN

CITY           SKY/WX    TMP DP  RH WIND       PRES   REMARKS
KINROSS        PTSUNNY   84  62  47 SW8       29.89F
MACKINAC ISLAN MOSUNNY   79  60  51 W7        29.89F
NEWBERRY       CLOUDY    75  63  65 S6        29.89S
S. S. MARIE    PTSUNNY   84  60  44 S12       29.88S
MUNISING         N/A     75  67  76 S5        29.86F
$$
MIZ004>006-011>014-085-262000-
CENTRAL UPPER MICHIGAN

CITY           SKY/WX    TMP DP  RH WIND       PRES   REMARKS
MANISTIQUE     CLOUDY    69  63  81 CALM      29.88F
MENOMINEE      MOSUNNY   77  67  71 SW6       29.89F
SAWYER-GWINN   PTSUNNY   70  64  83 SW9       29.89F
$$
MIZ001>003-009>011-084-262000-
WESTERN UPPER MICHIGAN

CITY           SKY/WX    TMP DP  RH WIND       PRES   REMARKS
IRON MOUNTAIN  CLOUDY    73  65  75 SW7       29.87F
HOUGHTON       CLOUDY    62  60  93 NW8       29.86F
COPPER HARBOR    N/A     59  58  96 NE5       29.85F
IRONWOOD       LGT RAIN  62  61  96 W3        29.87F FOG
$$

ABBREVIATIONS USED IN REMARKS
   TC - TEMPERATURE IN CELSIUS
  WCI - WIND CHILL INDEX
   HX - HEAT INDEX
  VSB - VISIBILITY




USA.gov is the U.S. government's official web portal to all federal, state and local government web resources and services.